Flag for Colombia Weather past 2 weeks in Bogota, Colombia

Now
48 °F

Passing clouds.


Feels Like: 47 °F
Forecast: 48 / 60 °F
Wind: 3 mph from Northeast

Location: Bogota / Eldorado

Current Time: Jun 29, 2015 at 10:50:36 PM

Latest Report: Jun 29, 2015 at 10:00 PM


Visibility: N/A

Pressure: 30.41 "Hg

Humidity: 82%

Dew point: 43 °F

Location of BogotaLocation

Historic Weather in Bogota — Graph

°F

Bogota temperature yesterday

Maximum temperature yesterday: 64 °F (at 2:00 PM)
Minimum temperature yesterday: 50 °F (at 3:00 AM)
Average temperature yesterday: 58 °F

Past Weeks' High & Low Weather Summary

 TemperatureHumidityPressure
High81 °F (Jun 22, 2:00 PM)100% (Jun 22, 6:00 AM)30.43 "Hg (Jun 22, 6:00 AM)
Low46 °F (Jun 20, 10:00 AM)44% (Jun 29, 7:00 PM)29.97 "Hg (Jun 22, 2:00 PM)
Average58 °F71%30.35 "Hg
* Reported Jun 14 9:00 PM — Jun 29 9:00 PM, Bogota, Weather by CustomWeather, © 2015

Note: Actual official high and low records may vary slightly from our data, if they occured in-between our weather recording intervals... More about our weather records

Advertising

Bogota weather history for previous 24 hours

 ConditionsComfort  
Time TempWeatherWind HumidityBarometerVisibility
9:00 PM
Mon, Jun 29
50 °FPassing clouds.3 mph71%30.38 "HgN/A
8:00 PM52 °FPassing clouds.2 mph62%30.36 "HgN/A
7:00 PM57 °FPassing clouds.6 mph44%30.34 "HgN/A
6:00 PM57 °FScattered clouds.12 mph59%30.31 "HgN/A
5:00 PM57 °FBroken clouds.12 mph67%30.30 "HgN/A
4:00 PM61 °FScattered showers. Broken clouds.12 mph52%30.30 "HgN/A
3:00 PM61 °FPartly sunny.9 mph52%30.31 "HgN/A
2:00 PM64 °FScattered showers. Partly sunny.12 mph49%30.32 "HgN/A
1:00 PM63 °FScattered showers. Partly sunny.14 mph56%30.34 "HgN/A
12:00 PM59 °FScattered showers. Partly sunny.16 mph68%30.37 "HgN/A
11:00 AM61 °FScattered showers. Partly sunny.13 mph63%30.37 "HgN/A
10:00 AM57 °FScattered showers. Partly sunny.13 mph77%30.39 "HgN/A
9:00 AM55 °FScattered showers. Partly sunny.12 mph77%30.39 "Hg6 mi
8:00 AM57 °FScattered showers. Partly sunny.9 mph67%30.38 "HgN/A
7:00 AM55 °FScattered showers. Partly sunny.5 mph77%30.37 "HgN/A
6:00 AM52 °FScattered showers. Partly sunny.5 mph94%30.34 "HgN/A
5:00 AM52 °FScattered showers. Passing clouds.10 mph94%30.33 "HgN/A
4:00 AM52 °FScattered showers. Passing clouds.12 mph94%30.32 "HgN/A
3:00 AM52 °FPassing clouds.8 mph88%30.33 "HgN/A
2:00 AM52 °FPassing clouds.3 mph88%30.33 "HgN/A
1:00 AM52 °FPassing clouds.2 mph88%30.36 "HgN/A
12:00 AM54 °FPassing clouds.6 mph88%30.39 "HgN/A
11:00 PM
Sun, Jun 28
54 °FPassing clouds.7 mph88%30.41 "Hg5 mi
10:00 PM54 °FScattered showers. Passing clouds.2 mph88%30.41 "Hg5 mi
Weather by CustomWeather, © 2015

See weather overviewHow to use our weather pages